Davenport Municipal Airport
Sunday 12:52 PM
Temperature71° (71°/49°)
Dew Point44°
Relative Humidity38
%
Visibility10
mi
Pressure1027.1
mb
Wind Direction
Wind SpeedCalm
Precipitation Today0.00"

Last 30 Observations

Time PresWx Temp DP Feels RH% Vsby Pressure Ceiling Direction Speed 1h Precip
12:52 PM 71° 44° 38
%
10
mi
1027.1
mb
Calm 0.00"
11:52 AM 68° 47° 47
%
10
mi
1027.8
mb
S
170°
7
mph
0.00"
10:52 AM 65° 47° 52
%
10
mi
1028.1
mb
SE
140°
6
mph
0.00"
9:52 AM 62° 47° 58
%
10
mi
1028.5
mb
E
100°
10
mph
0.00"
8:52 AM 60° 46° 60
%
10
mi
1028.1
mb
E
100°
9
mph
0.00"
7:52 AM 56° 46° 69
%
10
mi
1027.8
mb
E
100°
14
mph
0.00"
6:52 AM 53° 47° 80
%
10
mi
1027.4
mb
E
80°
9
mph
0.00"
5:52 AM 50° 45° 83
%
10
mi
1026.8
mb
E
80°
9
mph
0.00"
4:52 AM 51° 44° 77
%
10
mi
1025.7
mb
E
90°
7
mph
0.00"
3:52 AM 52° 44° 74
%
10
mi
1025.7
mb
ENE
60°
7
mph
0.00"
2:52 AM 56° 43° 62
%
10
mi
1025.4
mb
N
10°
5
mph
0.00"
1:52 AM 55° 43° 64
%
10
mi
1025.1
mb
NNE
30°
7
mph
0.00"
12:52 AM 56° 44° 64
%
10
mi
1024.7
mb
NNE
30°
7
mph
0.00"
11:52 PM 57° 44° 62
%
10
mi
1024.4
mb
NE
40°
7
mph
0.00"
10:52 PM 59° 45° 60
%
10
mi
1024.4
mb
NNE
20°
7
mph
0.00"
9:52 PM 59° 45° 60
%
10
mi
1024.1
mb
N
360°
8
mph
0.00"
8:52 PM 63° 45° 52
%
10
mi
1023.7
mb
NNW
340°
6
mph
0.00"
7:52 PM 68° 43° 40
%
10
mi
1023.4
mb
N
350°
9
mph
0.00"
6:52 PM 71° 42° 35
%
10
mi
1023.0
mb
N
360°
13
mph
0.00"
5:52 PM 73° 40° 30
%
10
mi
1022.7
mb
NNW
340°
15
mph
0.00"
4:52 PM 73° 41° 31
%
10
mi
1023.0
mb
NNW
340°
13
mph
0.00"
3:52 PM 73° 45° 37
%
10
mi
1023.0
mb
NNW
340°
11
mph
0.00"
2:52 PM 73° 47° 39
%
10
mi
1023.4
mb
NNW
340°
14
mph
0.00"
1:52 PM 72° 47° 41
%
10
mi
1023.4
mb
6,000
ft
NNW
340°
8
mph
0.00"
12:52 PM 72° 47° 41
%
10
mi
1024.1
mb
NNW
330°
14
mph
0.00"
11:52 AM 71° 48° 44
%
10
mi
1024.1
mb
NW
320°
11
mph
0.00"
10:52 AM 68° 48° 49
%
10
mi
1024.1
mb
NW
310°
9
mph
0.00"
9:52 AM 67° 48° 51
%
10
mi
1024.4
mb
NNW
330°
8
mph
0.00"
8:52 AM 64° 49° 58
%
10
mi
1024.4
mb
NNW
340°
9
mph
0.00"
7:52 AM 59° 50° 72
%
10
mi
1023.7
mb
NNW
340°
5
mph
0.00"